Rome Ciampino, Italy

1:27 PM CEST on April 25, 2017 (GMT +0200)
Ciampino

Weather History for LIRA - July, 2013

Change the Weather History Date:

Saturday, July 27, 2013

  Actual Average Record
Temperature  
Mean Temperature 83 °F -  
Max Temperature 95 °F 87 °F 96 °F (2012)
Min Temperature 71 °F 64 °F 60 °F (1999)
Cooling Degree Days 18    
Growing Degree Days 33 (Base 50)    
Moisture  
Dew Point 68 °F    
Average Humidity 62    
Maximum Humidity 89    
Minimum Humidity 36    
Precipitation  
Precipitation 0.00 in 0.04 in - ()
Sea Level Pressure  
Sea Level Pressure 29.95 in    
Wind  
Wind Speed 3 mph ()    
Max Wind Speed 10 mph    
Max Gust Speed -    
Visibility 6.2 miles    
Events      
Averages and records for this station are not official NWS values.
T = Trace of Precipitation, MM = Missing Value Source: Averaged Metar Reports

Daily Weather History Graph

Daily Weather History Graph

Search for Another Location

Airport or City:

Trip Planner

Search our weather history database for the weather conditions in past years. The results will help you decide how hot, cold, wet, or windy it might be!

Date:

Astronomy

Jul. 27, 2013 Rise Set
Actual Time 5:58 AM CEST 8:33 PM CEST
Civil Twilight 5:26 AM CEST 9:05 PM CEST
Nautical Twilight 4:46 AM CEST 9:44 PM CEST
Astronomical Twilight 4:01 AM CEST 10:29 PM CEST
Moon 11:04 PM CEST (7/27) 11:27 AM CEST (7/27)
Length of Visible Light 15h 38m
Length of Day
14h 34m
Waning Gibbous, 73% of the Moon is Illuminated
Jul 27
Waning Gibbous
Jul 29
Last Quarter
Aug 6
New
Aug 14
First Quarter
Aug 21
Full

Hourly Weather History & Observations

Time (CEST) Temp. Heat Index Dew Point Humidity Pressure Visibility Wind Dir Wind Speed Gust Speed Precip Events Conditions
12:15 AM 77.0 °F - 68.0 °F 74% 29.98 in - South 3.5 mph - N/A   Clear
12:45 AM 77.0 °F - 68.0 °F 74% 29.98 in - SSW 4.6 mph - N/A   Clear
1:15 AM 77.0 °F - 69.8 °F 78% 29.95 in - SSW 4.6 mph - N/A   Clear
1:45 AM 77.0 °F - 69.8 °F 78% 29.98 in - South 4.6 mph - N/A   Clear
2:15 AM 77.0 °F - 71.6 °F 83% 29.98 in - South 3.5 mph - N/A   Clear
2:45 AM 75.2 °F - 69.8 °F 83% 29.98 in - South 2.3 mph - N/A   Clear
3:15 AM 75.2 °F - 71.6 °F 89% 29.95 in - SSE 1.2 mph - N/A   Clear
3:45 AM 75.2 °F - 71.6 °F 89% 29.95 in - Calm Calm - N/A   Clear
4:15 AM 75.2 °F - 71.6 °F 89% 29.95 in - SSE 1.2 mph - N/A   Clear
4:45 AM 73.4 °F - 68.0 °F 83% 29.95 in - NE 3.5 mph - N/A   Clear
5:15 AM 71.6 °F - 66.2 °F 83% 29.95 in - NE 2.3 mph - N/A   Clear
5:45 AM 71.6 °F - 66.2 °F 83% 29.95 in - NNE 2.3 mph - N/A   Clear
6:15 AM 71.6 °F - 66.2 °F 83% 29.95 in - NNE 2.3 mph - N/A   Clear
6:45 AM 73.4 °F - 68.0 °F 83% 29.95 in - NNE 2.3 mph - N/A   Clear
7:15 AM 75.2 °F - 69.8 °F 83% 29.95 in - NNE 2.3 mph - N/A   Clear
7:45 AM 77.0 °F - 69.8 °F 78% 29.95 in - North 3.5 mph - N/A   Clear
8:15 AM 78.8 °F - 69.8 °F 74% 29.95 in - North 2.3 mph - N/A   Clear
8:45 AM 80.6 °F 83.9 °F 69.8 °F 70% 29.95 in - NW 4.6 mph - N/A   Clear
9:15 AM 82.4 °F 85.4 °F 68.0 °F 62% 29.95 in - NNW 2.3 mph - N/A   Clear
9:45 AM 86.0 °F 90.4 °F 69.8 °F 58% 29.95 in - NNE 1.2 mph - N/A   Clear
10:15 AM 86.0 °F 90.4 °F 69.8 °F 58% 29.95 in - NNW 1.2 mph - N/A   Clear
10:45 AM 87.8 °F 92.6 °F 69.8 °F 55% 29.95 in - North 2.3 mph - N/A   Clear
11:15 AM 89.6 °F 94.7 °F 69.8 °F 52% 29.95 in - North 3.5 mph - N/A   Clear
11:45 AM 89.6 °F 93.4 °F 68.0 °F 49% 29.95 in - NE 3.5 mph - N/A   Clear
12:15 PM 91.4 °F 95.4 °F 68.0 °F 46% 29.95 in - North 3.5 mph - N/A   Clear
12:45 PM 91.4 °F 94.0 °F 66.2 °F 43% 29.95 in 6.2 mi ESE 2.3 mph - N/A   Partly Cloudy
1:15 PM 95.0 °F 98.5 °F 66.2 °F 39% 29.95 in 6.2 mi North 1.2 mph - N/A   Partly Cloudy
1:45 PM 95.0 °F 97.0 °F 64.4 °F 36% 29.95 in 6.2 mi ENE 3.5 mph - N/A   Partly Cloudy
2:15 PM 95.0 °F 97.0 °F 64.4 °F 36% 29.92 in 6.2 mi SSW 5.8 mph - N/A   Partly Cloudy
2:45 PM 95.0 °F 97.0 °F 64.4 °F 36% 29.92 in 6.2 mi SSW 6.9 mph - N/A   Partly Cloudy
3:15 PM 93.2 °F 94.9 °F 64.4 °F 38% 29.92 in 6.2 mi West 10.4 mph - N/A   Partly Cloudy
3:45 PM 93.2 °F 94.9 °F 64.4 °F 38% 29.95 in 6.2 mi West 10.4 mph - N/A   Partly Cloudy
4:15 PM 93.2 °F 94.9 °F 64.4 °F 38% 29.95 in 6.2 mi WSW 10.4 mph - N/A   Partly Cloudy
4:45 PM 93.2 °F 94.9 °F 64.4 °F 38% 29.95 in 6.2 mi West 10.4 mph - N/A   Partly Cloudy
5:15 PM 93.2 °F 94.1 °F 62.6 °F 36% 29.95 in 6.2 mi West 10.4 mph - N/A   Partly Cloudy
5:45 PM 91.4 °F 92.1 °F 62.6 °F 38% 29.95 in - WSW 9.2 mph - N/A   Clear
6:15 PM 89.6 °F 90.1 °F 62.6 °F 40% 29.95 in - West 9.2 mph - N/A   Clear
6:45 PM 87.8 °F 89.4 °F 64.4 °F 46% 29.95 in - SW 8.1 mph - N/A   Clear
7:15 PM 87.8 °F 90.4 °F 66.2 °F 49% 29.95 in - WSW 5.8 mph - N/A   Clear
7:45 PM 86.0 °F 89.4 °F 68.0 °F 55% 29.95 in - West 4.6 mph - N/A   Clear
8:15 PM 86.0 °F 90.4 °F 69.8 °F 58% 29.95 in - West 3.5 mph - N/A   Clear
8:45 PM 84.2 °F 89.6 °F 71.6 °F 66% 29.95 in - SW 2.3 mph - N/A   Clear
9:15 PM 82.4 °F 87.2 °F 71.6 °F 70% 29.95 in - SSW 3.5 mph - N/A   Clear
9:45 PM 80.6 °F 84.6 °F 71.6 °F 74% 29.95 in - SW 2.3 mph - N/A   Clear
10:15 PM 80.6 °F 84.6 °F 71.6 °F 74% 29.95 in - WSW 2.3 mph - N/A   Clear
10:45 PM 78.8 °F - 71.6 °F 78% 29.95 in - Calm Calm - N/A   Clear
11:15 PM 78.8 °F - 62.6 °F 57% 29.95 in - SE 2.3 mph - N/A   Clear
11:45 PM 77.0 °F - 60.8 °F 57% 29.95 in - ESE 1.2 mph - N/A   Clear